Orbital Elements at Epoch 2459000.5 (2020-May-31.0) TDB
Reference: JPL 19 (heliocentric ecliptic J2000)
Element | Value | Uncertainty (1-sigma) | Units |
e | .1510553033612165 | 3.7996e-08 | |
a | 2.368224202616643 | 1.1887e-08 | au |
q | 2.010491377263011 | 8.7817e-08 | au |
i | 1.257136373780251 | 4.7525e-06 | deg |
node | 160.8705883979627 | 0.00018154 | deg |
peri | 295.2835189665956 | 0.00018239 | deg |
M | 88.14174656808795 | 1.693e-05 | deg |
tp | 2458674.579407731993 (2019-Jul-10.07940773) | 6.1634e-05 | TDB |
period | 1331.167327457551 3.64 | 1.0022e-05 2.744e-08 | d yr |
n | .2704393298831773 | 2.0361e-09 | deg/d |
Q | 2.725957027970275 | 1.3682e-08 | au |
|
| | Orbit Determination Parameters
Additional Information
|